Weather History for Burley, ID

Change the Weather History Date:

Sunday, October 14, 2012

  Actual Average Record
Temperature  
Mean Temperature 54 °F 48 °F  
Max Temperature 71 °F 62 °F 87 °F (1958)
Min Temperature 37 °F 35 °F 15 °F (2008)
Degree Days  
Heating Degree Days 11 17  
Month to date heating degree days 190 203  
Since 1 July heating degree days 282 473  
Cooling Degree Days 0 0  
Month to date cooling degree days 0 0  
Year to date cooling degree days 546 365  
Growing Degree Days 5 (Base 50)    
Moisture  
Dew Point 38 °F    
Average Humidity 57    
Maximum Humidity 85    
Minimum Humidity 29    
Precipitation  
Precipitation 0.00 in 0.03 in 0.42 in (1968)
Month to date precipitation T 0.32  
Year to date precipitation 6.80 7.63  
Sea Level Pressure  
Sea Level Pressure 30.20 in    
Wind  
Wind Speed 6 mph (SW)    
Max Wind Speed 21 mph    
Max Gust Speed 26 mph    
Visibility 10 miles    
Events      
T = Trace of Precipitation, MM = Missing Value Source: NWS Daily Summary

Daily Weather History Graph

Daily Weather History Graph

Search for Another Location

Airport:

Trip Planner

Search our weather history database for the weather conditions in past years. The results will help you decide how hot, cold, wet, or windy it might be!

Date:

Astronomy

Oct. 14, 2012 Rise Set
Actual Time 7:47 AM MDT 6:53 PM MDT
Civil Twilight 7:19 AM MDT 7:21 PM MDT
Nautical Twilight 6:46 AM MDT 7:54 PM MDT
Astronomical Twilight 6:13 AM MDT 8:27 PM MDT
Moon 6:51 AM MDT (10/14) 6:15 PM MDT (10/14)
Length of Visible Light 12h 02m
Length of Day
11h 05m
Waning Crescent, 1% of the Moon is Illuminated
Oct 14
Waning Crescent
Oct 15
New
Oct 21
First Quarter
Oct 29
Full
Nov 6
Last Quarter

Hourly Weather History & Observations

Time (MDT) Temp. Windchill Dew Point Humidity Pressure Visibility Wind Dir Wind Speed Gust Speed Precip Events Conditions
12:53 AM 48.9 °F - 39.9 °F 71% 30.22 in 10.0 mi SSW 8.1 mph - N/A   Clear
1:53 AM 46.9 °F - 37.9 °F 71% 30.22 in 10.0 mi SW 8.1 mph - N/A   Clear
2:53 AM 46.0 °F 41.9 °F 37.9 °F 73% 30.24 in 10.0 mi SW 8.1 mph - N/A   Clear
3:53 AM 46.0 °F 41.0 °F 37.0 °F 71% 30.24 in 10.0 mi SW 10.4 mph - N/A   Clear
4:53 AM 43.0 °F 38.2 °F 37.0 °F 80% 30.25 in 10.0 mi SSW 8.1 mph - N/A   Clear
5:53 AM 43.0 °F 40.3 °F 36.0 °F 76% 30.27 in 10.0 mi West 4.6 mph - N/A   Clear
6:53 AM 39.9 °F 37.8 °F 36.0 °F 86% 30.29 in 10.0 mi West 3.5 mph - N/A   Clear
7:53 AM 39.9 °F 36.7 °F 36.0 °F 86% 30.31 in 10.0 mi ESE 4.6 mph - N/A   Clear
8:53 AM 44.1 °F - 37.9 °F 79% 30.32 in 10.0 mi Calm Calm - N/A   Clear
9:53 AM 50.0 °F - 39.0 °F 66% 30.31 in 10.0 mi Calm Calm - N/A   Clear
10:53 AM 60.1 °F - 41.0 °F 49% 30.28 in 10.0 mi SSW 12.7 mph - N/A   Clear
11:53 AM 63.0 °F - 39.9 °F 43% 30.25 in 10.0 mi SW 8.1 mph - N/A   Clear
12:53 PM 64.9 °F - 41.0 °F 42% 30.23 in 10.0 mi SW 8.1 mph - N/A   Clear
2:53 PM 69.1 °F - 37.9 °F 32% 30.17 in 10.0 mi Calm Calm - N/A   Clear
3:53 PM 71.1 °F - 37.9 °F 30% 30.13 in 10.0 mi Variable 3.5 mph - N/A   Clear
4:53 PM 70.0 °F - 37.9 °F 31% 30.12 in 10.0 mi North 5.8 mph - N/A   Clear
5:53 PM 70.0 °F - 37.0 °F 30% 30.10 in 10.0 mi Calm Calm - N/A   Clear
6:53 PM 61.0 °F - 39.0 °F 44% 30.11 in 10.0 mi ENE 3.5 mph - N/A   Clear
7:53 PM 57.9 °F - 39.9 °F 51% 30.12 in 10.0 mi North 5.8 mph - N/A   Clear
8:53 PM 50.0 °F - 39.0 °F 66% 30.13 in 10.0 mi WSW 3.5 mph - N/A   Clear
9:53 PM 48.0 °F - 39.0 °F 71% 30.11 in 10.0 mi South 5.8 mph - N/A   Clear
10:53 PM 55.0 °F - 37.9 °F 53% 30.06 in 10.0 mi SSW 12.7 mph - N/A   Clear
11:53 PM 59.0 °F - 36.0 °F 42% 30.04 in 10.0 mi SSW 15.0 mph - N/A   Clear